Unsubscribe Automatically:

[TLELIST] 0 HST 1 20580U 90037B 26258.08598845 .00006362 00000-0 19471-3 0 9996 2 20580 28.4731 185.7155 0001912 68.0370 292.0429 15.31653124802369 0 ISS (ZARYA) 1 25544U 98067A 26258.17538348 .00006015 00000-0 11677-3 0 9999 2 25544 51.6311 214.7209 0004917 142.0099 218.1237 15.49120584585708 0 CXO 1 25867U 99040B 26259.29000158 .00000789 00000-0 00000-0 0 9993 2 25867 57.4112 114.2820 7693036 309.4077 0.3912 0.37803042 17664